TimePDT,TemperatureF,Dew PointF,Humidity,Sea Level PressureIn,VisibilityMPH,Wind Direction,Wind SpeedMPH,Gust SpeedMPH,PrecipitationIn,Events,Conditions,WindDirDegrees,DateUTC
12:56 AM,64.0,7.0,11,29.82,10.0,SSW,17.3,-,N/A,,Clear,210,2013-03-26 07:56:00
1:56 AM,63.0,9.0,12,29.83,10.0,SW,15.0,-,N/A,,Clear,220,2013-03-26 08:56:00
2:56 AM,62.1,17.1,18,29.81,10.0,SSW,15.0,21.9,N/A,,Clear,210,2013-03-26 09:56:00
3:56 AM,62.1,21.0,21,29.81,10.0,SSW,12.7,-,N/A,,Clear,200,2013-03-26 10:56:00
4:56 AM,63.0,21.9,21,29.81,10.0,Variable,3.5,-,N/A,,Overcast,0,2013-03-26 11:56:00
5:56 AM,60.1,21.0,22,29.81,10.0,South,12.7,-,N/A,,Overcast,170,2013-03-26 12:56:00
6:56 AM,60.1,21.0,22,29.81,10.0,South,12.7,-,N/A,,Mostly Cloudy,190,2013-03-26 13:56:00
7:56 AM,62.1,23.0,22,29.83,10.0,SSW,16.1,-,N/A,,Mostly Cloudy,210,2013-03-26 14:56:00
8:56 AM,68.0,18.0,15,29.83,10.0,SW,11.5,-,N/A,,Mostly Cloudy,230,2013-03-26 15:56:00
9:56 AM,69.1,18.0,14,29.83,10.0,NNW,9.2,-,N/A,,Mostly Cloudy,330,2013-03-26 16:56:00
10:56 AM,72.0,18.0,13,29.84,10.0,SSW,15.0,18.4,N/A,,Mostly Cloudy,210,2013-03-26 17:56:00
11:56 AM,73.9,16.0,11,29.83,10.0,Variable,4.6,-,N/A,,Mostly Cloudy,0,2013-03-26 18:56:00
12:56 PM,78.1,18.0,10,29.80,10.0,SSW,5.8,-,N/A,,Scattered Clouds,200,2013-03-26 19:56:00
1:56 PM,80.1,19.9,11,29.77,10.0,SW,26.5,33.4,N/A,,Scattered Clouds,220,2013-03-26 20:56:00
2:56 PM,80.1,19.9,11,29.75,10.0,WSW,17.3,26.5,N/A,,Mostly Cloudy,240,2013-03-26 21:56:00
3:56 PM,79.0,26.1,14,29.73,10.0,WSW,20.7,29.9,N/A,,Mostly Cloudy,240,2013-03-26 22:56:00
4:56 PM,77.0,27.0,16,29.73,10.0,WSW,18.4,-,N/A,,Mostly Cloudy,240,2013-03-26 23:56:00
5:56 PM,73.9,28.0,18,29.72,10.0,WSW,19.6,28.8,N/A,,Mostly Cloudy,250,2013-03-27 00:56:00
6:56 PM,72.0,27.0,19,29.73,10.0,WSW,11.5,-,N/A,,Mostly Cloudy,240,2013-03-27 01:56:00
7:56 PM,68.0,27.0,21,29.75,10.0,WSW,11.5,-,N/A,,Mostly Cloudy,250,2013-03-27 02:56:00
8:56 PM,64.9,30.0,27,29.77,10.0,Calm,Calm,-,N/A,,Mostly Cloudy,0,2013-03-27 03:56:00
9:56 PM,62.1,30.0,30,29.77,10.0,WSW,8.1,-,N/A,,Mostly Cloudy,250,2013-03-27 04:56:00
10:56 PM,64.0,30.0,28,29.78,10.0,SW,11.5,16.1,N/A,,Mostly Cloudy,230,2013-03-27 05:56:00
11:56 PM,60.1,28.9,31,29.79,10.0,SSE,8.1,-,N/A,,Clear,160,2013-03-27 06:56:00